COSMOS 2221

Last updated on Fri Oct 24 2025 00:02:14 GMT+0000 (Coordinated Universal Time)

1 22236U 92080A 25296.57297663 .00002860 00000+0 25594-3 0 9996 2 22236 82.5063 50.3197 0013287 295.3819 64.6026 14.95456293760290
UTC large
Height (km)
Speed (km/s)
/
Latitude / Longitude
Inclination (degrees)
Orbital Period (minutes)
Azimuth
Elevation
Range (km)
Doppler Factor

Next 0 passes for location: London (51.5072 / 0.1276)

Sorry there are no passes over London.